Powrót do katalogu

GSAT 17

AktywnyŁącznośćGEO
NORAD 42815·PAYLOAD·🇮🇳 India

Wystrzelony Jun 28, 2017 z Guiana Space Centre

Loading…

TLE

ŚwieżeSource: Space-Track

Epoka: Sep 14, 2026, 14:14 UTC

1 42815U 17040B   26257.59364775 -.00000265  00000-0  00000-0 0  9994
2 42815   0.0150 156.3539 0003997  94.5759  49.8428  1.00271329 33687

Śledź GSAT 17 w czasie rzeczywistym z AllMySat

Download on the App Store